TimeEST,TemperatureF,Dew PointF,Humidity,Sea Level PressureIn,VisibilityMPH,Wind Direction,Wind SpeedMPH,Gust SpeedMPH,PrecipitationIn,Events,Conditions,WindDirDegrees,DateUTC
12:15 AM,52.3,50.7,94,30.24,10.0,SE,3.5,-,N/A,,Overcast,130,2012-12-04 05:15:00
12:35 AM,52.5,51.3,95,30.23,10.0,Calm,Calm,-,N/A,,Overcast,0,2012-12-04 05:35:00
12:55 AM,53.1,51.3,94,30.23,10.0,Calm,Calm,-,N/A,,Overcast,0,2012-12-04 05:55:00
1:15 AM,52.7,51.1,94,30.22,10.0,Calm,Calm,-,N/A,,Overcast,0,2012-12-04 06:15:00
1:35 AM,52.9,51.4,95,30.22,10.0,Calm,Calm,-,N/A,,Overcast,0,2012-12-04 06:35:00
1:55 AM,53.4,51.4,93,30.23,10.0,Calm,Calm,-,N/A,,Overcast,0,2012-12-04 06:55:00
2:15 AM,53.6,51.4,92,30.23,10.0,Calm,Calm,-,N/A,,Overcast,0,2012-12-04 07:15:00
2:35 AM,53.4,51.3,92,30.23,10.0,Calm,Calm,-,N/A,,Overcast,0,2012-12-04 07:35:00
2:55 AM,52.7,50.9,94,30.22,10.0,Calm,Calm,-,N/A,,Mostly Cloudy,0,2012-12-04 07:55:00
3:15 AM,52.3,50.9,95,30.22,10.0,SE,3.5,-,N/A,,Mostly Cloudy,130,2012-12-04 08:15:00
3:35 AM,51.3,50.0,95,30.22,10.0,Calm,Calm,-,N/A,,Scattered Clouds,0,2012-12-04 08:35:00
3:55 AM,50.5,49.6,97,30.22,10.0,SE,3.5,-,N/A,,Clear,140,2012-12-04 08:55:00
4:15 AM,49.1,48.2,97,30.22,10.0,SSE,3.5,-,N/A,,Clear,150,2012-12-04 09:15:00
4:35 AM,49.5,48.9,98,30.22,10.0,Calm,Calm,-,N/A,,Clear,0,2012-12-04 09:35:00
4:55 AM,50.0,49.5,98,30.21,10.0,Calm,Calm,-,N/A,,Clear,0,2012-12-04 09:55:00
5:15 AM,49.8,49.5,99,30.22,10.0,Calm,Calm,-,N/A,,Scattered Clouds,0,2012-12-04 10:15:00
5:35 AM,48.2,48.2,100,30.22,10.0,Calm,Calm,-,N/A,,Scattered Clouds,0,2012-12-04 10:35:00
5:55 AM,48.4,48.4,100,30.22,10.0,Calm,Calm,-,N/A,,Mostly Cloudy,0,2012-12-04 10:55:00
6:15 AM,48.6,48.6,100,30.22,10.0,Calm,Calm,-,N/A,,Scattered Clouds,0,2012-12-04 11:15:00
6:35 AM,48.4,48.2,99,30.22,10.0,Calm,Calm,-,N/A,,Scattered Clouds,0,2012-12-04 11:35:00
6:55 AM,48.2,47.3,97,30.22,10.0,Calm,Calm,-,N/A,,Mostly Cloudy,0,2012-12-04 11:55:00
7:15 AM,49.1,48.4,97,30.23,10.0,Calm,Calm,-,N/A,,Mostly Cloudy,0,2012-12-04 12:15:00
7:35 AM,48.6,48.2,99,30.23,10.0,SE,3.5,-,N/A,,Mostly Cloudy,130,2012-12-04 12:35:00
7:55 AM,50.5,50.0,98,30.24,10.0,Calm,Calm,-,N/A,,Mostly Cloudy,0,2012-12-04 12:55:00
8:15 AM,52.5,51.8,97,30.23,7.0,Calm,Calm,-,N/A,,Mostly Cloudy,0,2012-12-04 13:15:00
8:35 AM,55.0,54.5,98,30.24,7.0,Calm,Calm,-,N/A,,Scattered Clouds,0,2012-12-04 13:35:00
8:55 AM,57.0,55.2,94,30.23,10.0,Calm,Calm,-,N/A,,Clear,0,2012-12-04 13:55:00
9:15 AM,59.4,55.4,87,30.24,10.0,Calm,Calm,-,N/A,,Clear,0,2012-12-04 14:15:00
9:35 AM,61.0,55.4,82,30.24,10.0,Calm,Calm,-,N/A,,Clear,0,2012-12-04 14:35:00
9:55 AM,62.8,55.8,78,30.24,10.0,Calm,Calm,-,N/A,,Clear,0,2012-12-04 14:55:00
10:15 AM,64.2,54.7,71,30.24,10.0,South,3.5,-,N/A,,Clear,180,2012-12-04 15:15:00
10:55 AM,68.2,54.9,62,30.22,10.0,South,5.8,-,N/A,,Clear,180,2012-12-04 15:55:00
11:15 AM,70.7,54.0,55,30.21,10.0,SSW,10.4,-,N/A,,Clear,200,2012-12-04 16:15:00
11:35 AM,71.4,53.6,53,30.19,10.0,SSW,9.2,-,N/A,,Clear,200,2012-12-04 16:35:00
11:55 AM,73.0,53.2,50,30.18,10.0,SW,9.2,-,N/A,,Clear,220,2012-12-04 16:55:00
12:15 PM,73.8,52.5,47,30.17,10.0,SW,13.8,19.6,N/A,,Clear,220,2012-12-04 17:15:00
12:35 PM,74.7,52.3,46,30.16,10.0,SSW,11.5,-,N/A,,Clear,200,2012-12-04 17:35:00
12:55 PM,74.5,52.2,46,30.15,10.0,SSW,9.2,-,N/A,,Clear,200,2012-12-04 17:55:00
1:15 PM,75.2,51.6,44,30.14,10.0,SSW,11.5,19.6,N/A,,Clear,200,2012-12-04 18:15:00
1:35 PM,75.0,52.7,46,30.13,10.0,SSW,16.1,21.9,N/A,,Clear,210,2012-12-04 18:35:00
1:55 PM,75.2,52.9,46,30.12,10.0,SSW,15.0,19.6,N/A,,Clear,210,2012-12-04 18:55:00
2:15 PM,75.2,52.0,44,30.12,10.0,SW,12.7,23.0,N/A,,Clear,220,2012-12-04 19:15:00
2:35 PM,75.0,51.8,44,30.12,10.0,SSW,15.0,19.6,N/A,,Clear,200,2012-12-04 19:35:00
2:55 PM,74.5,51.3,44,30.11,10.0,SSW,13.8,-,N/A,,Clear,200,2012-12-04 19:55:00
3:15 PM,74.1,51.4,45,30.10,10.0,South,12.7,16.1,N/A,,Clear,190,2012-12-04 20:15:00
3:35 PM,73.6,51.3,45,30.10,10.0,South,8.1,-,N/A,,Clear,190,2012-12-04 20:35:00
3:55 PM,73.0,50.7,45,30.10,10.0,SW,8.1,-,N/A,,Clear,220,2012-12-04 20:55:00
4:15 PM,72.1,50.9,47,30.11,10.0,SSW,6.9,-,N/A,,Clear,210,2012-12-04 21:15:00
4:35 PM,71.1,51.1,49,30.11,10.0,SSW,8.1,-,N/A,,Clear,210,2012-12-04 21:35:00
4:55 PM,70.7,50.9,49,30.10,10.0,SSW,8.1,-,N/A,,Clear,200,2012-12-04 21:55:00
5:15 PM,69.8,51.1,51,30.11,10.0,SSW,8.1,-,N/A,,Clear,200,2012-12-04 22:15:00
5:35 PM,68.0,50.9,54,30.11,10.0,SSW,6.9,-,N/A,,Clear,200,2012-12-04 22:35:00
5:55 PM,67.3,50.9,56,30.11,10.0,SSW,5.8,-,N/A,,Clear,210,2012-12-04 22:55:00
6:15 PM,65.8,50.9,58,30.10,10.0,SSW,6.9,-,N/A,,Clear,200,2012-12-04 23:15:00
6:35 PM,66.2,50.9,58,30.10,10.0,South,9.2,-,N/A,,Clear,190,2012-12-04 23:35:00
6:55 PM,66.4,51.1,58,30.09,10.0,SSW,8.1,-,N/A,,Scattered Clouds,210,2012-12-04 23:55:00
7:15 PM,66.6,51.3,58,30.09,10.0,SSW,9.2,-,N/A,,Mostly Cloudy,210,2012-12-05 00:15:00
7:35 PM,66.2,51.3,59,30.09,10.0,SSW,8.1,-,N/A,,Mostly Cloudy,210,2012-12-05 00:35:00
7:55 PM,66.2,51.3,59,30.10,10.0,SSW,9.2,-,N/A,,Mostly Cloudy,200,2012-12-05 00:55:00
8:15 PM,66.4,51.3,58,30.09,10.0,SSW,9.2,-,N/A,,Overcast,200,2012-12-05 01:15:00
8:35 PM,66.2,50.9,58,30.09,10.0,SSW,10.4,-,N/A,,Overcast,210,2012-12-05 01:35:00
8:55 PM,66.6,50.7,57,30.08,10.0,SSW,10.4,-,N/A,,Overcast,200,2012-12-05 01:55:00
9:15 PM,65.8,50.4,57,30.08,10.0,SSW,10.4,-,N/A,,Mostly Cloudy,200,2012-12-05 02:15:00
9:35 PM,65.3,50.2,58,30.08,10.0,SSW,10.4,-,N/A,,Scattered Clouds,210,2012-12-05 02:35:00
9:55 PM,64.9,50.0,58,30.07,10.0,SSW,9.2,-,N/A,,Scattered Clouds,200,2012-12-05 02:55:00
10:15 PM,64.9,50.0,58,30.07,10.0,SSW,8.1,-,N/A,,Mostly Cloudy,200,2012-12-05 03:15:00
10:35 PM,64.8,50.2,59,30.06,10.0,SSW,11.5,-,N/A,,Overcast,210,2012-12-05 03:35:00
10:55 PM,64.6,50.5,60,30.06,10.0,SSW,8.1,-,N/A,,Overcast,210,2012-12-05 03:55:00
11:15 PM,64.6,50.9,61,30.05,10.0,SSW,11.5,-,N/A,,Mostly Cloudy,210,2012-12-05 04:15:00
11:35 PM,64.8,51.4,62,30.05,10.0,SSW,10.4,-,N/A,,Mostly Cloudy,210,2012-12-05 04:35:00
11:55 PM,66.2,51.8,60,30.04,10.0,SW,8.1,19.6,N/A,,Overcast,220,2012-12-05 04:55:00